Weather History for Clinton, BC

Change the Weather History Date:

Sunday, February 16, 2014

  Actual Average Record
Temperature  
Mean Temperature 26 °F -  
Max Temperature 35 °F 31 °F 44 °F (1997)
Min Temperature 18 °F 15 °F -5 °F (2001)
Degree Days  
Heating Degree Days 38    
Moisture  
Dew Point 18 °F    
Average Humidity 66    
Maximum Humidity 75    
Minimum Humidity 27    
Precipitation  
Precipitation 0.04 in - - ()
Sea Level Pressure  
Sea Level Pressure 29.41 in    
Wind  
Wind Speed 6 mph ()    
Max Wind Speed 15 mph    
Max Gust Speed 23 mph    
Visibility 5.9 miles    
Events      
Averages and records for this station are not official NWS values.
T = Trace of Precipitation, MM = Missing Value Source: Averaged Metar Reports

Daily Weather History Graph

Daily Weather History Graph

Search for Another Location

Airport:

Trip Planner

Search our weather history database for the weather conditions in past years. The results will help you decide how hot, cold, wet, or windy it might be!

Date:

Astronomy

Feb. 16, 2014 Rise Set
Actual Time 7:16 AM PST 5:24 PM PST
Civil Twilight 6:42 AM PST 5:58 PM PST
Nautical Twilight 6:04 AM PST 6:37 PM PST
Astronomical Twilight 5:25 AM PST 7:15 PM PST
Moon 7:45 PM PST (2/16) 7:33 AM PST (2/16)
Length of Visible Light 11h 15m
Length of Day
10h 07m
Full, 97% of the Moon is Illuminated
Feb 16
Full
Feb 22
Last Quarter
Mar 1
New
Mar 8
First Quarter
Mar 16
Full

Hourly Weather History & Observations

Time (PST) Temp. Windchill Dew Point Humidity Pressure Visibility Wind Dir Wind Speed Gust Speed Precip Events Conditions
12:00 AM 30.2 °F 22.6 °F 23.0 °F 75% 29.17 in 4.0 mi South 8.1 mph 18.4 mph N/A   Unknown
12:03 AM 30.2 °F 21.9 °F 23.0 °F 75% 29.08 in 3.0 mi South 9.2 mph - N/A   Unknown
12:07 AM 30.2 °F 22.6 °F 23.0 °F 75% 29.08 in 2.2 mi South 8.1 mph - N/A   Unknown
12:17 AM 30.2 °F 22.6 °F 23.0 °F 75% 29.09 in 2.5 mi SSE 8.1 mph 17.3 mph N/A   Unknown
12:19 AM 30.2 °F 23.4 °F 23.0 °F 75% 29.09 in 2.5 mi SSE 6.9 mph - N/A   Unknown
12:22 AM 30.2 °F 24.3 °F 23.0 °F 75% 29.10 in 9.0 mi South 5.8 mph - N/A   Unknown
12:31 AM 30.2 °F 22.6 °F 23.0 °F 75% 29.10 in 5.0 mi South 8.1 mph - N/A   Unknown
12:40 AM 30.2 °F 23.4 °F 23.0 °F 75% 29.11 in 2.5 mi SSW 6.9 mph - N/A   Unknown
12:41 AM 30.2 °F 23.4 °F 23.0 °F 75% 29.11 in 2.2 mi SSW 6.9 mph - N/A   Unknown
12:52 AM 30.2 °F 25.4 °F 23.0 °F 75% 29.11 in 2.5 mi South 4.6 mph - N/A   Unknown
12:59 AM 30.2 °F 24.3 °F 23.0 °F 75% 29.12 in 9.0 mi WSW 5.8 mph - N/A   Unknown
1:00 AM 30 °F - 23 °F 64% 29.21 in 9 mi SW 3.5 mph - -  
1:00 AM 30.2 °F 26.7 °F 23.0 °F 75% 29.21 in 9.0 mi SW 3.5 mph - N/A   Unknown
1:28 AM 30.2 °F 24.3 °F 23.0 °F 75% 29.14 in 9.0 mi SSE 5.8 mph - N/A   Unknown
1:33 AM 30.2 °F 22.6 °F 23.0 °F 75% 29.14 in 8.0 mi South 8.1 mph - N/A   Unknown
1:38 AM 30.2 °F 23.4 °F 23.0 °F 75% 29.14 in 9.0 mi SSE 6.9 mph - N/A   Unknown
1:39 AM 30.2 °F 21.3 °F 21.2 °F 69% 29.14 in 9.0 mi SSE 10.4 mph - N/A   Unknown
1:57 AM 28.4 °F 22.2 °F 21.2 °F 74% 29.15 in 9.0 mi SSE 5.8 mph - N/A   Unknown
1:59 AM 28.4 °F 21.2 °F 21.2 °F 74% 29.15 in 9.0 mi SSE 6.9 mph - N/A   Unknown
2:00 AM 28.4 °F 20.4 °F 21.2 °F 74% 29.25 in 9.0 mi South 8.1 mph - N/A   Unknown
3:00 AM 28.4 °F 19.1 °F 19.4 °F 69% 29.31 in 9.0 mi South 10.4 mph 19.6 mph N/A   Unknown
3:18 AM 28.4 °F 22.2 °F 19.4 °F 69% 29.24 in 2.2 mi SSW 5.8 mph 18.4 mph N/A   Unknown
3:38 AM 26.6 °F - 19.4 °F 74% 29.24 in 9.0 mi WSW 2.3 mph - N/A   Unknown
4:00 AM 27 °F - 18 °F 59% 29.38 in 9 mi SW 2.3 mph - -  
4:00 AM 26.6 °F - 19.4 °F 74% 29.38 in 9.0 mi Calm Calm - N/A   Unknown
4:58 AM 26.6 °F 19.1 °F 17.6 °F 69% 29.32 in 9.0 mi SSW 6.9 mph - N/A   Unknown
5:00 AM 26.6 °F 19.1 °F 17.6 °F 69% 29.43 in 9.0 mi South 6.9 mph - N/A   Unknown
5:18 AM 24.8 °F - 15.8 °F 69% 29.33 in 9.0 mi SW 2.3 mph - N/A   Unknown
6:00 AM 23.0 °F 17.0 °F 15.8 °F 74% 29.48 in 9.0 mi SW 4.6 mph - N/A   Unknown
7:00 AM 20 °F - 11 °F 57%  in 9 mi SSW 2.3 mph - -  
7:00 AM 19.4 °F - 12.2 °F 74% 29.53 in 9.0 mi Calm Calm - N/A   Unknown
8:00 AM 19.4 °F - 10.4 °F 68% 29.58 in 9.0 mi Calm Calm - N/A   Unknown
8:42 AM 24.8 °F - 17.6 °F 74% 29.48 in 9.0 mi West 2.3 mph - N/A   Unknown
8:44 AM 24.8 °F 19.1 °F 17.6 °F 74% 29.48 in 9.0 mi West 4.6 mph - N/A   Unknown
8:49 AM 24.8 °F 17.9 °F 17.6 °F 74% 29.48 in 2.0 mi West 5.8 mph - N/A   Unknown
8:51 AM 26.6 °F 18.2 °F 17.6 °F 69% 29.49 in 1.0 mi West 8.1 mph - N/A   Unknown
8:52 AM 26.6 °F 18.2 °F 17.6 °F 69% 29.49 in 0.8 mi West 8.1 mph - N/A   Unknown
8:53 AM 26.6 °F 20.0 °F 17.6 °F 69% 29.49 in 0.6 mi West 5.8 mph - N/A   Unknown
8:56 AM 24.8 °F 19.1 °F 17.6 °F 74% 29.49 in 0.4 mi WNW 4.6 mph - N/A   Unknown
9:00 AM 24.8 °F 19.1 °F 17.6 °F 74% 29.61 in 0.4 mi West 4.6 mph - N/A   Unknown
9:31 AM 26.6 °F 21.2 °F 17.6 °F 69% 29.50 in 0.5 mi SSW 4.6 mph - N/A   Unknown
9:34 AM 26.6 °F 22.6 °F 17.6 °F 69% 29.50 in 0.6 mi SW 3.5 mph - N/A   Unknown
9:39 AM 26.6 °F - 17.6 °F 69% 29.50 in 1.0 mi WNW 2.3 mph - N/A   Unknown
9:51 AM 26.6 °F 21.2 °F 17.6 °F 69% 29.51 in 1.5 mi SW 4.6 mph - N/A   Unknown
9:52 AM 26.6 °F 21.2 °F 17.6 °F 69% 29.51 in 1.2 mi SW 4.6 mph - N/A   Unknown
9:55 AM 26.6 °F 21.2 °F 17.6 °F 69% 29.51 in 0.8 mi SSW 4.6 mph - N/A   Unknown
9:57 AM 26.6 °F 20.0 °F 17.6 °F 69% 29.51 in 0.6 mi SSW 5.8 mph - N/A   Unknown
9:58 AM 26.6 °F 20.0 °F 17.6 °F 69% 29.51 in 0.6 mi SSW 5.8 mph - N/A   Unknown
10:00 AM 26 °F - 18 °F 61% 29.64 in 1 mi SSW 4.6 mph - -  
10:00 AM 26.6 °F 21.2 °F 17.6 °F 69% 29.64 in 0.6 mi SSW 4.6 mph - N/A   Unknown
10:03 AM 26.6 °F 21.2 °F 17.6 °F 69% 29.52 in 0.6 mi SSW 4.6 mph - N/A   Unknown
10:04 AM 26.6 °F 22.6 °F 17.6 °F 69% 29.52 in 1.0 mi SSW 3.5 mph - N/A   Unknown
10:08 AM 26.6 °F 20.0 °F 17.6 °F 69% 29.52 in 3.0 mi South 5.8 mph - N/A   Unknown
11:00 AM 28.4 °F 22.2 °F 14.0 °F 55% 29.65 in 9.0 mi WSW 5.8 mph - N/A   Unknown
12:00 PM 32.0 °F 24.8 °F 12.2 °F 44% 29.65 in 9.0 mi SW 8.1 mph 17.3 mph N/A   Unknown
1:00 PM 33 °F - 11 °F 27% 29.66 in 9 mi SSW 8.1 mph - -  
1:00 PM 32.0 °F 25.6 °F 12.2 °F 44% 29.66 in 9.0 mi SSW 6.9 mph - N/A   Unknown
2:00 PM 33.8 °F 27.7 °F 12.2 °F 41% 29.68 in 9.0 mi SW 6.9 mph - N/A   Unknown
3:00 PM 32.0 °F 25.6 °F 12.2 °F 44% 29.67 in 9.0 mi SSE 6.9 mph - N/A   Unknown
4:00 PM 31 °F - 14 °F 35% 29.66 in 9 mi South 9.2 mph - -  
4:00 PM 30.2 °F 20.8 °F 14.0 °F 51% 29.66 in 9.0 mi SSE 11.5 mph 17.3 mph N/A   Unknown
5:00 PM 28.4 °F 17.5 °F 14.0 °F 55% 29.64 in 9.0 mi South 13.8 mph 20.7 mph N/A   Unknown
6:00 PM 28.4 °F 19.7 °F 14.0 °F 55% 29.62 in 9.0 mi South 9.2 mph 20.7 mph N/A   Unknown
7:00 PM 28 °F - 13 °F 39% 29.59 in 9 mi South 10.4 mph - -  
7:00 PM 28.4 °F 19.7 °F 12.2 °F 51% 29.59 in 9.0 mi South 9.2 mph 20.7 mph N/A   Unknown
8:00 PM 28.4 °F 17.0 °F 14.0 °F 55% 29.55 in 9.0 mi SSW 15.0 mph 21.9 mph N/A   Unknown
9:00 PM 28.4 °F 17.5 °F 15.8 °F 59% 29.53 in 9.0 mi South 13.8 mph 23.0 mph N/A   Unknown
10:00 PM 28 °F - 16 °F 47%  in 9 mi SSW 9.2 mph - -  
10:00 PM 28.4 °F 21.2 °F 15.8 °F 59% 29.53 in 9.0 mi SSW 6.9 mph 17.3 mph N/A   Unknown
11:00 PM 26.6 °F 21.2 °F 15.8 °F 64% 29.54 in 9.0 mi SW 4.6 mph - N/A   Unknown